Regional Weather Roundup
Issued by NWS

Home | Current Version | Previous Version | Graphics & Text | Print | Product List | Glossary On
Versions: 1 2 3 4 5 6 7 8 9 10 11 12 13 14 15 16 17 18 19 20 21 22 23 24 25 26 27 28 29 30 31 32 33 34 35 36 37 38 39 40 41 42 43 44 45 46 47 48 49 50
000
ASUS45 KTFX 161604
RWRMT
MONTANA HOURLY WEATHER ROUNDUP
NATIONAL WEATHER SERVICE GREAT FALLS MT
1004 AM MDT WED APR 16 2014

NOTE: "FAIR" INDICATES FEW OR NO CLOUDS BELOW 12000 FEET WITH NO
SIGNIFICANT WEATHER AND/OR OBSTRUCTIONS TO VISIBILITY.

* THESE STATIONS ARE NOT UNDER NWS QUALITY CONTROL. THEY DO NOT
   REPORT WEATHER SUCH AS PRECIPITATION OR FOG.

MTZ001>007-043-161700-
WEST OF THE DIVIDE
CITY           SKY/WX    TMP DP  RH WIND       PRES   REMARKS
KALISPELL      PTSUNNY   37  36  96 CALM      29.98S
MISSOULA       CLOUDY    36  36 100 W3        30.03S
BUTTE          CLOUDY    36  18  48 W8        29.98S WCI  30
MULLAN PASS    PTSUNNY   27  25  92 VRB3      29.95S
* ESSEX        N/A       34  33  96 SE1        N/A
* LINCOLN      N/A       35  28  76 S3G8       N/A
* LOOKOUT PASS N/A       35  26  70 NW4        N/A
* POLSON       N/A       42  30  63 S3         N/A
* SEELEY LAKE  N/A       32  31  96 NE1        N/A
* THOMP F APT  PTSUNNY   34  15  46 NW6G18     N/A   WCI  29
* YAAK HILL    N/A       31  29  92 S1         N/A
$$

MTZ008-052>055-161700-
SOUTHWEST MONTANA
CITY           SKY/WX    TMP DP  RH WIND       PRES   REMARKS
BOZEMAN        CLOUDY    43  25  49 N3        29.99S
DILLON         PTSUNNY   39  18  43 SW13      29.99S WCI  31
W YELLOWSTONE  N/A       36  20  52 W2         N/A
* BOULDER HILL N/A       34  19  54 S8         N/A   WCI  27
* MONIDA PASS  N/A       29  13  51 W9         N/A   WCI  21
* RAYNOLDS PAS N/A       32  17  54 S4         N/A
* WHITEHALL    N/A       40  21  47 SW8G13     N/A   WCI  35
* WISE RIVER   N/A       36  20  52 W7G12      N/A   WCI  30
$$

MTZ009>010-012-014-046-048-049-054-161700-
EAST SLOPES AND CENTRAL MONTANA
CITY           SKY/WX    TMP DP  RH WIND       PRES   REMARKS
CUT BANK       FOG       28  27  96 NE15      29.98R WCI  16
GREAT FALLS    CLOUDY    36  32  85 NW5       29.97R WCI  32
HELENA         PTCLDY    45  23  42 W13       29.96F
MALMSTROM AFB  CLOUDY    36  30  79 CALM      29.96R
* DEARBORN     N/A       39  32  76 S1         N/A
* EAST GLACIER N/A       28  25  89 E7         N/A   WCI  21
* MONARCH      N/A       32  23  69 SW8        N/A   WCI  25
* PENDROY      N/A       33  33 100 SE5        N/A   WCI  28
* ROGERS PASS  N/A       34  24  67 SE8G16     N/A   WCI  27
* SAINT MARY   N/A       34  31  89 N5         N/A   WCI  29
* SWEET GRASS  N/A       27  27 100 NE12       N/A   WCI  16
$$

MTZ011-013-016-021-035-040-045-047-050-051-161700-
NORTH CENTRAL MONTANA
CITY           SKY/WX    TMP DP  RH WIND       PRES   REMARKS
HAVRE          CLOUDY    36  28  73 NE8       30.03R WCI  30
LEWISTOWN      CLOUDY    30  28  92 CALM      29.97S
* CHESTER      N/A       32  30  92 SW2        N/A
* DENTON       N/A       32  31  96 E3         N/A
* GEYSER       N/A       32  30  92 E6         N/A   WCI  26
* JUDITH GAP   N/A       30  29  96 VRB8G13    N/A   WCI  22
* LOMA         N/A       34  32  92 E4         N/A
$$

MTZ017>020-022>027-061-062-161700-
NORTHEAST MONTANA
CITY           SKY/WX    TMP DP  RH WIND       PRES   REMARKS
GLASGOW        CLOUDY    30  21  69 NE8       30.06R WCI  22
GLENDIVE       CLOUDY    28  19  69 NE8       30.04R WCI  20
JORDAN         CLOUDY    30  21  69 NE8       30.03R WCI  22
SIDNEY         CLOUDY    28  19  69 NE9       30.09R WCI  19
WOLF POINT     CLOUDY    30  19  64 NE9       30.09R WCI  22
* BEAVER HILL  N/A       26  18  72 NE8G13     N/A   WCI  18
* CIRCLE       N/A       28  22  78 NE9        N/A   WCI  19
* LINDSAY DVD  N/A       26  20  78 NE10       N/A   WCI  16
* NAVAJO       N/A       23  18  81 E12        N/A   WCI  11
* SACO         N/A       30  21  69 NE8        N/A   WCI  22
$$

MTZ028>042-056>058-161700-
SOUTHCENTRAL AND SOUTHEAST MONTANA
CITY           SKY/WX    TMP DP  RH WIND       PRES   REMARKS
BAKER          SUNNY     32  19  59 VRB6      29.99R WCI  26
BILLINGS       PTCLDY    37  30  76 NE14      29.98R WCI  28
LIVINGSTON     PTSUNNY   43  21  42 W18       29.96S
MILES CITY     PTSUNNY   36  21  54 N8        30.01R WCI  30
* LAUREL APT   PTCLDY    43  25  49 NW9        N/A
* ROUNDUP APT  PTCLDY    34  25  70 N6         N/A   WCI  29
* HYSHAM       N/A       36  22  57 N7         N/A   WCI  30
* LAME DEER    N/A       32  23  69 N10G15     N/A   WCI  24
* REED POINT   N/A       45  27  49 W19G25     N/A
* ROSCOE HILL  N/A       39   9  29 NW9G19     N/A   WCI  33
$$

REGIONAL REPORTS...DAKOTAS
CITY           SKY/WX    TMP DP  RH WIND       PRES   REMARKS
WILLISTON      CLOUDY    27  21  78 E12       30.10R WCI  16
DICKINSON      CLOUDY    27  21  78 NE13      29.99R WCI  16
CROSBY         LGT SNOW  23  19  85 E15       30.15R WCI  10
TIOGA          CLOUDY    23  23 100 E16G23    30.12R WCI  10
WATFORD CITY   CLOUDY    25  19  78 E14       30.06R WCI  13
BISMARCK       CLOUDY    28  21  75 NE18      30.05R WCI  15
GRAND FORKS    PTSUNNY   36  10  34 NE16      30.08R WCI  26
FARGO          CLOUDY    30  21  69 NE18      30.04R WCI  18
RAPID CITY     PTSUNNY   36  28  73 N24G30    29.89R WCI  24
$$

REGIONAL REPORTS...WYOMING/IDAHO/WASHINGTON
CITY           SKY/WX    TMP DP  RH WIND       PRES   REMARKS
GILLETTE       PTSUNNY   39  28  65 NW17      29.93R WCI  30
SHERIDAN       CLOUDY    39  34  82 NW21      29.97R WCI  29
CODY           SUNNY     41  21  45 NE7       29.95S
YELLOWSTONE LA SUNNY     21  14  74 SE5       29.99F WCI  14
SALMON         PTCLDY    39  19  45 NW5       30.04S WCI  35
MULLAN PASS    PTSUNNY   27  25  92 VRB3      29.95S
SPOKANE        CLOUDY    43  30  60 SW15      30.02R
$$

REGIONAL REPORTS...ALBERTA
CITY           SKY/WX    TMP DP  RH WIND       PRES   REMARKS
MEDICINE HAT   PTSUNNY   32  25  75 NE7       30.06S WCI  25
$$

REGIONAL REPORTS...SASKATCHEWAN
CITY           SKY/WX    TMP DP  RH WIND       PRES   REMARKS
SWIFT CURRENT  LGT SNOW  25  23  92 E16       30.06R VSB 2 1/4 WCI  12
MOOSE JAW      LGT SNOW N/A N/A N/A E15        N/A   VSB 2 1/2

$$




USA.gov is the U.S. government's official web portal to all federal, state and local government web resources and services.